VAT202 RCTP-VHHX

Flight info

Callsign VAT202
Flight time 1h 18m
Altitude 40000
Route CHALI1C CHALI T3 MKG A1 ELATO
Aircraft B772/H-SDE2E3FGHIJ5LORVWXY/LB1D1

Departure

Time 2026-05-05 15:13
Airport Taiwan Taoyuan International Airport (RCTP)

Arrival

Time 2026-05-05 16:31
Airport Hong Kong International Airport Kai Tak (VHHX)
Time Latitude Longitude Altitude Speed Heading
2026-05-05 15:12 25.09561 121.26703 2101 ft 206 kts 52°
2026-05-05 15:13 25.10541 121.27995 2301 ft 233 kts 47°
2026-05-05 15:13 25.11971 121.28921 2500 ft 258 kts
2026-05-05 15:13 25.13191 121.28891 2887 ft 264 kts 344°
2026-05-05 15:13 25.14739 121.27868 3636 ft 265 kts 309°
2026-05-05 15:14 25.15598 121.26102 4464 ft 262 kts 281°
2026-05-05 15:14 25.15571 121.24127 5314 ft 259 kts 253°
2026-05-05 15:14 25.14752 121.22343 6057 ft 263 kts 235°
2026-05-05 15:14 25.13622 121.20786 6850 ft 263 kts 231°
2026-05-05 15:15 25.12444 121.19233 7645 ft 263 kts 232°
2026-05-05 15:15 25.11303 121.17646 8421 ft 264 kts 234°
2026-05-05 15:15 25.10202 121.16018 9179 ft 265 kts 236°
2026-05-05 15:15 25.09133 121.14354 9925 ft 267 kts 237°
2026-05-05 15:16 25.08077 121.12644 10415 ft 278 kts 238°
2026-05-05 15:16 25.06960 121.10776 10601 ft 303 kts 237°
2026-05-05 15:16 25.05771 121.08750 10921 ft 323 kts 238°
2026-05-05 15:16 25.04545 121.06629 11630 ft 332 kts 238°
2026-05-05 15:17 25.03303 121.04456 12508 ft 337 kts 238°
2026-05-05 15:17 25.02054 121.02255 13494 ft 340 kts 238°
2026-05-05 15:17 25.00809 121.00052 14396 ft 344 kts 238°
2026-05-05 15:17 24.99594 120.97896 15267 ft 348 kts 238°
2026-05-05 15:18 24.98310 120.95614 16136 ft 352 kts 238°
2026-05-05 15:18 24.97011 120.93307 17079 ft 355 kts 238°
2026-05-05 15:18 24.95704 120.90985 18023 ft 358 kts 238°
2026-05-05 15:18 24.94379 120.88629 18834 ft 363 kts 239°
2026-05-05 15:19 24.93042 120.86254 19658 ft 366 kts 239°
2026-05-05 15:19 24.91689 120.83854 20490 ft 370 kts 239°
2026-05-05 15:19 24.90327 120.81436 21340 ft 373 kts 239°
2026-05-05 15:19 24.88969 120.79028 22144 ft 376 kts 239°
2026-05-05 15:20 24.87580 120.76567 22950 ft 380 kts 240°
2026-05-05 15:20 24.86176 120.74080 23701 ft 384 kts 240°
2026-05-05 15:20 24.84755 120.71563 24328 ft 388 kts 240°
2026-05-05 15:20 24.83319 120.69022 24939 ft 392 kts 240°
2026-05-05 15:21 24.81872 120.66463 25521 ft 396 kts 240°
2026-05-05 15:21 24.80408 120.63875 26102 ft 400 kts 240°
2026-05-05 15:21 24.78956 120.61309 26673 ft 403 kts 240°
2026-05-05 15:21 24.77482 120.58706 27220 ft 406 kts 240°
2026-05-05 15:22 24.75982 120.56059 27779 ft 409 kts 240°
2026-05-05 15:22 24.74343 120.53477 28263 ft 414 kts 233°
2026-05-05 15:22 24.72406 120.51111 28762 ft 419 kts 229°
2026-05-05 15:22 24.70281 120.48879 29245 ft 424 kts 225°
2026-05-05 15:23 24.67940 120.46857 29591 ft 432 kts 220°
2026-05-05 15:23 24.65445 120.44959 29898 ft 439 kts 218°
2026-05-05 15:23 24.62904 120.43076 30272 ft 441 kts 218°
2026-05-05 15:23 24.60350 120.41186 30657 ft 442 kts 218°
2026-05-05 15:24 24.57798 120.39284 31020 ft 444 kts 219°
2026-05-05 15:24 24.55243 120.37364 31330 ft 446 kts 219°
2026-05-05 15:24 24.52711 120.35451 31608 ft 448 kts 219°
2026-05-05 15:24 24.50140 120.33506 31880 ft 449 kts 219°
2026-05-05 15:25 24.47562 120.31557 32148 ft 451 kts 219°
2026-05-05 15:25 24.44980 120.29608 32447 ft 450 kts 219°
2026-05-05 15:25 24.42397 120.27626 32738 ft 451 kts 219°
2026-05-05 15:25 24.39841 120.25644 33091 ft 449 kts 220°
2026-05-05 15:26 24.37298 120.23666 33492 ft 447 kts 220°
2026-05-05 15:26 24.34768 120.21699 33919 ft 445 kts 220°
2026-05-05 15:26 24.32250 120.19746 34263 ft 443 kts 220°
2026-05-05 15:26 24.29731 120.17795 34577 ft 442 kts 220°
2026-05-05 15:27 24.27222 120.15854 34909 ft 441 kts 220°
2026-05-05 15:27 24.24751 120.13944 35241 ft 439 kts 220°
2026-05-05 15:27 24.22225 120.11993 35586 ft 438 kts 220°
2026-05-05 15:27 24.19767 120.10095 35842 ft 438 kts 220°
2026-05-05 15:28 24.17267 120.08165 36110 ft 439 kts 220°
2026-05-05 15:28 24.14774 120.06242 36405 ft 438 kts 220°
2026-05-05 15:28 24.12279 120.04313 36744 ft 437 kts 221°
2026-05-05 15:28 24.09803 120.02398 37071 ft 435 kts 221°
2026-05-05 15:29 24.07329 120.00482 37374 ft 435 kts 221°
2026-05-05 15:29 24.04984 119.98667 37656 ft 434 kts 221°
2026-05-05 15:29 24.02551 119.96786 37928 ft 433 kts 221°
2026-05-05 15:29 24.00083 119.94881 38221 ft 433 kts 221°
2026-05-05 15:30 23.97628 119.92988 38494 ft 432 kts 221°
2026-05-05 15:30 23.95174 119.91098 38747 ft 431 kts 221°
2026-05-05 15:30 23.92715 119.89205 38927 ft 432 kts 221°
2026-05-05 15:30 23.90255 119.87311 39095 ft 433 kts 221°
2026-05-05 15:31 23.87794 119.85417 39253 ft 433 kts 221°
2026-05-05 15:31 23.85348 119.83535 39430 ft 434 kts 221°
2026-05-05 15:31 23.82879 119.81636 39560 ft 436 kts 221°
2026-05-05 15:32 23.77888 119.77799 39823 ft 438 kts 221°
2026-05-05 15:32 23.72909 119.73977 39937 ft 441 kts 221°
2026-05-05 15:33 23.67883 119.70123 40012 ft 440 kts 221°
2026-05-05 15:33 23.62917 119.66246 40020 ft 435 kts 225°
2026-05-05 15:34 23.58705 119.61670 40022 ft 427 kts 234°
2026-05-05 15:34 23.55223 119.56481 40033 ft 422 kts 241°
2026-05-05 15:35 23.52103 119.51049 40019 ft 423 kts 242°
2026-05-05 15:35 23.48985 119.45595 40011 ft 425 kts 242°
2026-05-05 15:36 23.45829 119.40123 40016 ft 427 kts 242°
2026-05-05 15:36 23.42648 119.34633 40010 ft 429 kts 242°
2026-05-05 15:37 23.39459 119.29152 40006 ft 431 kts 242°
2026-05-05 15:37 23.36240 119.23630 40013 ft 432 kts 242°
2026-05-05 15:38 23.33016 119.18102 40007 ft 433 kts 242°
2026-05-05 15:38 23.29779 119.12555 39992 ft 433 kts 242°
2026-05-05 15:39 23.26566 119.07057 40003 ft 433 kts 242°
2026-05-05 15:39 23.23331 119.01526 40010 ft 434 kts 242°
2026-05-05 15:40 23.20167 118.96124 40025 ft 434 kts 242°
2026-05-05 15:40 23.16915 118.90577 40007 ft 434 kts 243°
2026-05-05 15:41 23.13663 118.85035 40005 ft 435 kts 243°
2026-05-05 15:41 23.10428 118.79528 40006 ft 435 kts 243°
2026-05-05 15:42 23.07172 118.73992 40006 ft 435 kts 242°
2026-05-05 15:42 23.03908 118.68449 40014 ft 435 kts 242°
2026-05-05 15:43 23.00639 118.62903 40009 ft 436 kts 243°
2026-05-05 15:43 22.97366 118.57356 40017 ft 437 kts 243°
2026-05-05 15:44 22.94080 118.51799 40015 ft 438 kts 243°
2026-05-05 15:44 22.90797 118.46278 40012 ft 438 kts 242°
2026-05-05 15:45 22.87489 118.40729 39989 ft 438 kts 242°
2026-05-05 15:45 22.84178 118.35171 40008 ft 439 kts 242°
2026-05-05 15:46 22.80860 118.29604 40014 ft 439 kts 242°
2026-05-05 15:46 22.77538 118.24031 40012 ft 440 kts 242°
2026-05-05 15:47 22.74213 118.18457 40012 ft 441 kts 242°
2026-05-05 15:47 22.70933 118.12971 40012 ft 441 kts 242°
2026-05-05 15:48 22.67594 118.07395 40012 ft 441 kts 242°
2026-05-05 15:48 22.64245 118.01807 40010 ft 441 kts 243°
2026-05-05 15:49 22.60983 117.96369 40011 ft 441 kts 243°
2026-05-05 15:49 22.57672 117.90824 40010 ft 441 kts 243°
2026-05-05 15:50 22.54349 117.85232 40011 ft 441 kts 243°
2026-05-05 15:50 22.51030 117.79657 40011 ft 441 kts 243°
2026-05-05 15:51 22.47703 117.74076 40012 ft 440 kts 243°
2026-05-05 15:51 22.44383 117.68516 39982 ft 441 kts 242°
2026-05-05 15:52 22.41076 117.62982 40003 ft 441 kts 242°
2026-05-05 15:52 22.37735 117.57400 40011 ft 442 kts 242°
2026-05-05 15:53 22.34458 117.51780 40001 ft 438 kts 249°
2026-05-05 15:53 22.33421 117.48718 40016 ft 431 kts 261°
2026-05-05 15:53 22.33087 117.45536 40007 ft 424 kts 272°
2026-05-05 15:54 22.33067 117.39137 40012 ft 427 kts 271°
2026-05-05 15:54 22.32996 117.32730 40015 ft 430 kts 271°
2026-05-05 15:55 22.32890 117.26241 40018 ft 431 kts 271°
2026-05-05 15:55 22.32770 117.19795 40009 ft 433 kts 271°
2026-05-05 15:56 22.32645 117.13287 40012 ft 433 kts 271°
2026-05-05 15:56 22.32519 117.06775 40013 ft 433 kts 271°
2026-05-05 15:57 22.32390 117.00277 40009 ft 432 kts 271°
2026-05-05 15:57 22.32264 116.93990 40013 ft 431 kts 271°
2026-05-05 15:58 22.32132 116.87526 40016 ft 430 kts 271°
2026-05-05 15:58 22.31997 116.81079 39991 ft 429 kts 271°
2026-05-05 15:59 22.31859 116.74619 40007 ft 430 kts 271°
2026-05-05 15:59 22.31743 116.69250 40019 ft 431 kts 271°
2026-05-05 16:00 22.31600 116.62767 40016 ft 432 kts 271°
2026-05-05 16:00 22.31454 116.56266 40013 ft 433 kts 271°
2026-05-05 16:01 22.31306 116.49792 40017 ft 434 kts 270°
2026-05-05 16:01 22.31154 116.43270 40014 ft 434 kts 270°
2026-05-05 16:02 22.31001 116.36750 40014 ft 434 kts 270°
2026-05-05 16:02 22.30844 116.30226 40014 ft 434 kts 270°
2026-05-05 16:03 22.30685 116.23705 40006 ft 434 kts 270°
2026-05-05 16:03 22.30522 116.17188 40012 ft 433 kts 270°
2026-05-05 16:04 22.30359 116.10730 40009 ft 432 kts 270°
2026-05-05 16:04 22.30192 116.04262 39990 ft 424 kts 270°
2026-05-05 16:04 22.30109 116.01114 39748 ft 418 kts 270°
2026-05-05 16:05 22.30031 115.98126 39279 ft 416 kts 270°
2026-05-05 16:05 22.29960 115.95411 38763 ft 416 kts 270°
2026-05-05 16:05 22.29905 115.93344 38274 ft 417 kts 270°
2026-05-05 16:05 22.29832 115.90581 37618 ft 418 kts 270°
2026-05-05 16:06 22.29748 115.87437 36888 ft 419 kts 270°
2026-05-05 16:06 22.29663 115.84274 36130 ft 421 kts 270°
2026-05-05 16:06 22.29573 115.81094 35239 ft 426 kts 269°
2026-05-05 16:06 22.29466 115.77922 34363 ft 431 kts 269°
2026-05-05 16:07 22.29346 115.74667 33369 ft 436 kts 269°
2026-05-05 16:07 22.29220 115.71381 32385 ft 439 kts 269°
2026-05-05 16:07 22.29093 115.68068 31536 ft 440 kts 269°
2026-05-05 16:07 22.28966 115.64777 30825 ft 438 kts 269°
2026-05-05 16:08 22.28841 115.61506 30130 ft 436 kts 270°
2026-05-05 16:08 22.28718 115.58241 29308 ft 433 kts 270°
2026-05-05 16:08 22.28597 115.55047 28547 ft 428 kts 270°
2026-05-05 16:08 22.28475 115.51845 27806 ft 423 kts 269°
2026-05-05 16:09 22.28355 115.48691 27094 ft 419 kts 269°
2026-05-05 16:09 22.28236 115.45566 26382 ft 414 kts 269°
2026-05-05 16:09 22.28116 115.42473 25704 ft 411 kts 269°
2026-05-05 16:09 22.27998 115.39404 25013 ft 408 kts 269°
2026-05-05 16:10 22.27879 115.36347 24317 ft 405 kts 268°
2026-05-05 16:10 22.27761 115.33321 23622 ft 403 kts 268°
2026-05-05 16:10 22.27656 115.30657 22933 ft 401 kts 268°
2026-05-05 16:10 22.27536 115.27657 22224 ft 398 kts 268°
2026-05-05 16:11 22.27417 115.24683 21537 ft 394 kts 268°
2026-05-05 16:11 22.27068 115.15953 19581 ft 385 kts 268°
2026-05-05 16:12 22.26885 115.13079 18934 ft 383 kts 264°
2026-05-05 16:12 22.25877 115.07448 17599 ft 381 kts 259°
2026-05-05 16:13 22.24309 114.99333 15779 ft 371 kts 259°
2026-05-05 16:13 22.23817 114.96609 15195 ft 368 kts 259°
2026-05-05 16:13 22.23331 114.93901 14611 ft 366 kts 259°
2026-05-05 16:14 22.22925 114.88509 13411 ft 361 kts 269°
2026-05-05 16:14 22.22975 114.83132 12237 ft 355 kts 269°
2026-05-05 16:15 22.22979 114.77827 11117 ft 351 kts 269°
2026-05-05 16:15 22.22935 114.72692 10609 ft 329 kts 268°
2026-05-05 16:16 22.22880 114.67942 10332 ft 304 kts 268°
2026-05-05 16:16 22.22836 114.63542 10078 ft 282 kts 268°
2026-05-05 16:17 22.22801 114.59396 9532 ft 274 kts 269°
2026-05-05 16:17 22.22784 114.57349 9199 ft 272 kts 268°
2026-05-05 16:18 22.22751 114.53325 8544 ft 268 kts 268°
2026-05-05 16:18 22.22735 114.51314 8214 ft 267 kts 268°
2026-05-05 16:18 22.22698 114.47331 7558 ft 264 kts 268°
2026-05-05 16:19 22.22677 114.45353 7255 ft 263 kts 268°
2026-05-05 16:19 22.22657 114.43388 6939 ft 262 kts 268°
2026-05-05 16:19 22.22617 114.39459 6317 ft 261 kts 268°
2026-05-05 16:20 22.22580 114.35559 5681 ft 259 kts 268°
2026-05-05 16:20 22.22543 114.31694 5054 ft 259 kts 267°
2026-05-05 16:21 22.22500 114.27789 4395 ft 259 kts 268°
2026-05-05 16:22 22.22454 114.22181 3734 ft 238 kts 267°
2026-05-05 16:22 22.22425 114.18645 3261 ft 231 kts 266°
2026-05-05 16:23 22.22395 114.15242 2833 ft 219 kts 268°
2026-05-05 16:23 22.22381 114.13641 2736 ft 208 kts 267°
2026-05-05 16:23 22.22355 114.10594 2621 ft 199 kts 267°
2026-05-05 16:24 22.22338 114.09094 2575 ft 202 kts 267°
2026-05-05 16:24 22.22323 114.07573 2533 ft 203 kts 268°
2026-05-05 16:24 22.22401 114.04612 2479 ft 198 kts 287°
2026-05-05 16:25 22.23205 114.03402 2507 ft 203 kts 327°
2026-05-05 16:25 22.25741 114.03446 2511 ft 185 kts 43°
2026-05-05 16:25 22.26689 114.04361 2475 ft 176 kts 46°
2026-05-05 16:26 22.28298 114.05904 2480 ft 140 kts 49°
2026-05-05 16:26 22.29366 114.07551 2506 ft 135 kts 65°
2026-05-05 16:27 22.29813 114.08432 2367 ft 133 kts 65°
2026-05-05 16:27 22.30246 114.09301 2180 ft 130 kts 66°
2026-05-05 16:27 22.30658 114.10153 1901 ft 128 kts 66°
2026-05-05 16:27 22.31039 114.10989 1672 ft 122 kts 68°
2026-05-05 16:28 22.31413 114.11828 1542 ft 125 kts 67°
2026-05-05 16:28 22.31800 114.12680 1339 ft 126 kts 65°
2026-05-05 16:28 22.32197 114.13522 1173 ft 129 kts 64°
2026-05-05 16:28 22.32625 114.14376 1025 ft 130 kts 63°
2026-05-05 16:29 22.33062 114.15220 810 ft 124 kts 67°
2026-05-05 16:29 22.33248 114.16122 711 ft 125 kts 88°
2026-05-05 16:29 22.33241 114.17052 566 ft 127 kts 93°
2026-05-05 16:29 22.33192 114.18012 420 ft 131 kts 94°
2026-05-05 16:30 22.32862 114.18883 251 ft 131 kts 132°
2026-05-05 16:30 22.32235 114.19576 92 ft 126 kts 131°
2026-05-05 16:30 22.31675 114.20213 42 ft 102 kts 134°
2026-05-05 16:30 22.31289 114.20644 42 ft 58 kts 133°
2026-05-05 16:31 22.31079 114.20879 42 ft 39 kts 134°
2026-05-05 16:31 22.30899 114.21082 42 ft 36 kts 128°
2026-05-05 16:31 22.30828 114.21239 42 ft 5 kts 87°
2026-05-05 16:31 22.30832 114.21253 42 ft 5 kts 69°
2026-05-05 16:32 22.30863 114.21269 42 ft 6 kts 356°
2026-05-05 16:32 22.30906 114.21238 42 ft 8 kts 310°
2026-05-05 16:32 22.30938 114.21191 42 ft 9 kts 307°
2026-05-05 16:32 22.30984 114.21137 42 ft 10 kts 316°
2026-05-05 16:33 22.31033 114.21084 42 ft 10 kts 315°
2026-05-05 16:33 22.31082 114.21032 42 ft 10 kts 314°
2026-05-05 16:33 22.31130 114.20976 42 ft 10 kts 312°
2026-05-05 16:33 22.31180 114.20917 42 ft 13 kts 314°
2026-05-05 16:34 22.31246 114.20843 42 ft 14 kts 314°
2026-05-05 16:34 22.31313 114.20769 41 ft 14 kts 314°
2026-05-05 16:34 22.31388 114.20684 42 ft 20 kts 314°
2026-05-05 16:34 22.31483 114.20579 42 ft 19 kts 314°
2026-05-05 16:35 22.31600 114.20448 42 ft 34 kts 314°
2026-05-05 16:35 22.31761 114.20269 42 ft 31 kts 314°
2026-05-05 16:35 22.31906 114.20107 36 ft 30 kts 314°
2026-05-05 16:35 22.32050 114.19945 36 ft 30 kts 314°
2026-05-05 16:36 22.32190 114.19788 35 ft 29 kts 314°
2026-05-05 16:36 22.32331 114.19635 34 ft 29 kts 317°
2026-05-05 16:36 22.32461 114.19548 36 ft 13 kts 19°
2026-05-05 16:36 22.32518 114.19616 36 ft 12 kts 50°
2026-05-05 16:37 22.32566 114.19636 36 ft 7 kts 331°
2026-05-05 16:37 22.32599 114.19600 37 ft 7 kts 310°
2026-05-05 16:37 22.32623 114.19570 37 ft 3 kts 313°
2026-05-05 16:37 22.32633 114.19560 37 ft 1 kts 314°
2026-05-05 16:38 22.32634 114.19558 37 ft 0 kts 314°